Location: Kra?nica
(53.4833°N, 14.6167°E)
Time: 18:04:20
(UTC+00:00)

Meteor 1-4 Rocket - Pass Details

Date: 23 May 2024
Orbit: 359 x 380 km, 81.2° (Epoch: 13 June)

Event Time Altitude Azimuth Distance (km) Brightness Sun altitude
Exits shadow 00:56:32 21° 206° (SSW) 875 3.2 -11.6°
Maximum altitude 00:58:17 65° 285° (WNW) 404 2.1 -11.5°
Drops below altitude 10° 01:01:13 10° 8° (N) 1,362 6.1 -11.3°
Sets 01:03:13 0° 12° (NNE) 2,219 7.5 -11.1°
